Location: �terpigny
(49.8910°N, 2.9249°E)
Time: 11:22:53
(UTC+00:00)

PAYLOAD B - Pass Details

Date: 24 October 2021
Orbit: 849 x 871 km, 99.1° (Epoch: 06 December)

Event Time Altitude Azimuth Distance (km) Brightness Sun altitude
Rises 17:04:40 0° 153° (SSE) 3,417 7.2 -4.8°
Reaches altitude 10° 17:07:02 10° 151° (SSE) 2,488 6.5 -5.1°
Maximum altitude 17:12:30 68° 70° (ENE) 928 4.2 -6.0°
Drops below altitude 10° 17:18:04 10° 349° (NNW) 2,519 6.7 -6.9°
Sets 17:20:28 0° 347° (NNW) 3,464 7.4 -7.2°
